Weather History for Gulkana, AK

Change the Weather History Date:

Wednesday, June 26, 2013

  Actual Average Record
Temperature  
Mean Temperature 71 °F -  
Max Temperature 88 °F 66 °F 89 °F (2004)
Min Temperature 54 °F 44 °F 30 °F (2008)
Cooling Degree Days 6    
Growing Degree Days 21 (Base 50)    
Moisture  
Dew Point 50 °F    
Average Humidity 46    
Maximum Humidity 81    
Minimum Humidity 15    
Precipitation  
Precipitation 0.00 in - - ()
Sea Level Pressure  
Sea Level Pressure 29.62 in    
Wind  
Wind Speed 6 mph (SSE)    
Max Wind Speed 15 mph    
Max Gust Speed -    
Visibility 10 miles    
Events      
Averages and records for this station are not official NWS values.
T = Trace of Precipitation, MM = Missing Value Source: NWS Daily Summary

Daily Weather History Graph

Daily Weather History Graph

Search for Another Location

Airport:

Trip Planner

Search our weather history database for the weather conditions in past years. The results will help you decide how hot, cold, wet, or windy it might be!

Date:

Astronomy

Jun. 26, 2013 Rise Set
Actual Time 3:51 AM AKDT 11:37 PM AKDT
Civil Twilight 2:17 AM AKDT 1:12 AM AKDT
Nautical Twilight Sun does not rise Sun does not rise
Astronomical Twilight Sun does not rise Sun does not rise
Moon No Moon Rise 9:32 AM AKDT (6/26)
Length of Visible Light 22h 55m
Length of Day
19h 46m
Waning Gibbous, 84% of the Moon is Illuminated
Jun 26
Waning Gibbous
Jun 29
Last Quarter
Jul 7
New
Jul 15
First Quarter
Jul 22
Full

Hourly Weather History & Observations

Time (AKDT) Temp. Dew Point Humidity Pressure Visibility Wind Dir Wind Speed Gust Speed Precip Events Conditions
12:53 AM 68.0 °F 52.0 °F 56% 29.56 in 10.0 mi NNE 11.5 mph - N/A   Clear
1:53 AM 64.0 °F 53.1 °F 67% 29.56 in 10.0 mi NNW 6.9 mph - N/A   Clear
2:53 AM 63.0 °F 53.1 °F 70% 29.56 in 10.0 mi Calm Calm - N/A   Clear
3:53 AM 62.1 °F 52.0 °F 70% 29.57 in 10.0 mi NNE 3.5 mph - N/A   Clear
4:53 AM 57.0 °F 51.1 °F 81% 29.58 in 10.0 mi Calm Calm - N/A   Clear
5:53 AM 60.1 °F 52.0 °F 75% 29.57 in 10.0 mi East 4.6 mph - N/A   Partly Cloudy
6:53 AM 62.1 °F 52.0 °F 70% 29.58 in 10.0 mi East 3.5 mph - N/A   Partly Cloudy
7:53 AM 62.1 °F 52.0 °F 70% 29.59 in 10.0 mi SSE 3.5 mph - N/A   Scattered Clouds
8:53 AM 66.9 °F 51.1 °F 57% 29.60 in 10.0 mi Calm Calm - N/A   Scattered Clouds
9:53 AM 70.0 °F 53.1 °F 55% 29.60 in 10.0 mi Calm Calm - N/A   Scattered Clouds
10:53 AM 75.0 °F 53.1 °F 46% 29.60 in 10.0 mi South 6.9 mph - N/A   Scattered Clouds
11:53 AM 79.0 °F 53.1 °F 40% 29.60 in 10.0 mi West 4.6 mph - N/A   Partly Cloudy
12:53 PM 82.9 °F 52.0 °F 34% 29.58 in 10.0 mi Variable 4.6 mph - N/A   Scattered Clouds
1:53 PM 84.9 °F 48.9 °F 29% 29.59 in 10.0 mi SW 5.8 mph - N/A   Scattered Clouds
2:53 PM 87.1 °F 46.0 °F 24% 29.59 in 10.0 mi South 6.9 mph - N/A   Scattered Clouds
3:53 PM 86.0 °F 45.0 °F 24% 29.59 in 10.0 mi SE 5.8 mph - N/A   Scattered Clouds
4:53 PM 86.0 °F 48.9 °F 28% 29.61 in 10.0 mi SSE 8.1 mph - N/A   Mostly Cloudy
5:53 PM 84.9 °F 48.0 °F 28% 29.61 in 10.0 mi SW 9.2 mph - N/A   Mostly Cloudy
6:53 PM 84.0 °F 46.9 °F 27% 29.63 in 10.0 mi South 8.1 mph - N/A   Mostly Cloudy
7:53 PM 80.1 °F 48.0 °F 32% 29.66 in 10.0 mi SSE 15.0 mph - N/A   Mostly Cloudy
8:53 PM 75.9 °F 48.0 °F 37% 29.68 in 10.0 mi SSE 10.4 mph - N/A   Mostly Cloudy
9:26 PM 73.9 °F 48.0 °F 40% 29.73 in 10.0 mi SE 11.5 mph - N/A   Mostly Cloudy
9:53 PM 73.0 °F 48.0 °F 41% 29.71 in 10.0 mi SSE 11.5 mph - N/A   Scattered Clouds
10:53 PM 71.1 °F 48.0 °F 44% 29.74 in 10.0 mi South 10.4 mph - N/A   Scattered Clouds
11:53 PM 68.0 °F 48.9 °F 50% 29.76 in 10.0 mi SSW 8.1 mph - N/A   Clear